Weather History for Show Low, AZ

Change the Weather History Date:

Wednesday, May 14, 2014

  Actual Average Record
Temperature  
Mean Temperature 46 °F -  
Max Temperature 64 °F 72 °F 86 °F (2006)
Min Temperature 28 °F 52 °F 24 °F (1967)
Degree Days  
Heating Degree Days 19    
Moisture  
Dew Point 7 °F    
Average Humidity 20    
Maximum Humidity 38    
Minimum Humidity 10    
Precipitation  
Precipitation 0.00 in - - ()
Sea Level Pressure  
Sea Level Pressure 30.40 in    
Wind  
Wind Speed 5 mph (NNE)    
Max Wind Speed 18 mph    
Max Gust Speed 24 mph    
Visibility 10 miles    
Events      
Averages and records for this station are not official NWS values.
T = Trace of Precipitation, MM = Missing Value Source: NWS Daily Summary

Daily Weather History Graph

Daily Weather History Graph

Search for Another Location

Airport:

Trip Planner

Search our weather history database for the weather conditions in past years. The results will help you decide how hot, cold, wet, or windy it might be!

Date:

Astronomy

May. 14, 2014 Rise Set
Actual Time 5:18 AM MST 7:14 PM MST
Civil Twilight 4:51 AM MST 7:42 PM MST
Nautical Twilight 4:17 AM MST 8:15 PM MST
Astronomical Twilight 3:41 AM MST 8:51 PM MST
Moon 7:24 PM MST (5/14) 5:17 AM MST (5/14)
Length of Visible Light 14h 51m
Length of Day
13h 55m
Full, 100% of the Moon is Illuminated
May 14
Full
May 14
Full
May 21
Last Quarter
May 28
New
Jun 5
First Quarter

Hourly Weather History & Observations

Time (MST) Temp. Windchill Dew Point Humidity Pressure Visibility Wind Dir Wind Speed Gust Speed Precip Events Conditions
12:15 AM 35.6 °F - 1.4 °F 24% 30.43 in 10.0 mi Calm Calm - N/A   Clear
12:35 AM 35.6 °F 31.7 °F 3.2 °F 26% 30.43 in 10.0 mi NE 4.6 mph - N/A   Clear
12:55 AM 33.8 °F 30.8 °F 3.2 °F 28% 30.44 in 10.0 mi NNE 3.5 mph - N/A   Clear
1:15 AM 33.8 °F - 5.0 °F 30% 30.44 in 10.0 mi Calm Calm - N/A   Clear
1:35 AM 32.0 °F - 5.0 °F 32% 30.44 in 10.0 mi Calm Calm - N/A   Clear
1:55 AM 32.0 °F 28.7 °F 5.0 °F 32% 30.44 in 10.0 mi North 3.5 mph - N/A   Clear
2:15 AM 32.0 °F 28.7 °F 5.0 °F 32% 30.44 in 10.0 mi NNE 3.5 mph - N/A   Clear
2:35 AM 33.8 °F - 6.8 °F 32% 30.43 in 10.0 mi Calm Calm - N/A   Clear
2:55 AM 32.0 °F 28.7 °F 5.0 °F 32% 30.44 in 10.0 mi North 3.5 mph - N/A   Clear
3:15 AM 32.0 °F - 5.0 °F 32% 30.43 in 10.0 mi Calm Calm - N/A   Clear
3:35 AM 30.2 °F - 5.0 °F 34% 30.43 in 10.0 mi Calm Calm - N/A   Clear
3:55 AM 32.0 °F - 5.0 °F 32% 30.42 in 10.0 mi Calm Calm - N/A   Clear
4:15 AM 32.0 °F 28.7 °F 5.0 °F 32% 30.43 in 10.0 mi WSW 3.5 mph - N/A   Clear
4:35 AM 32.0 °F - 6.8 °F 35% 30.43 in 10.0 mi Calm Calm - N/A   Clear
4:55 AM 28.4 °F - 5.0 °F 37% 30.43 in 10.0 mi Calm Calm - N/A   Clear
5:15 AM 30.2 °F - 6.8 °F 37% 30.43 in 10.0 mi Calm Calm - N/A   Clear
5:35 AM 32.0 °F - 6.8 °F 35% 30.43 in 10.0 mi Calm Calm - N/A   Clear
5:55 AM 32.0 °F - 8.6 °F 38% 30.44 in 10.0 mi Calm Calm - N/A   Clear
6:15 AM 32.0 °F - 8.6 °F 38% 30.44 in 10.0 mi Calm Calm - N/A   Clear
6:35 AM 33.8 °F - 8.6 °F 35% 30.45 in 10.0 mi Calm Calm - N/A   Clear
6:55 AM 35.6 °F - 8.6 °F 33% 30.45 in 10.0 mi Calm Calm - N/A   Clear
7:15 AM 39.2 °F - 8.6 °F 28% 30.45 in 10.0 mi Calm Calm - N/A   Clear
7:35 AM 41.0 °F - 8.6 °F 26% 30.45 in 10.0 mi Calm Calm - N/A   Clear
7:55 AM 44.6 °F 43.1 °F 10.4 °F 25% 30.45 in 10.0 mi North 3.5 mph - N/A   Clear
8:15 AM 46.4 °F 45.2 °F 14.0 °F 27% 30.45 in 10.0 mi NNE 3.5 mph - N/A   Clear
8:35 AM 50.0 °F - 14.0 °F 24% 30.45 in 10.0 mi North 9.2 mph - N/A   Clear
8:55 AM 53.6 °F - 8.6 °F 16% 30.44 in 10.0 mi NNE 12.7 mph 21.9 mph N/A   Clear
9:15 AM 55.4 °F - 8.6 °F 15% 30.44 in 10.0 mi NE 12.7 mph - N/A   Clear
9:35 AM 55.4 °F - 8.6 °F 15% 30.44 in 10.0 mi NE 15.0 mph 19.6 mph N/A   Clear
9:55 AM 55.4 °F - 6.8 °F 14% 30.44 in 10.0 mi ENE 11.5 mph 19.6 mph N/A   Clear
10:15 AM 55.4 °F - 8.6 °F 15% 30.43 in 10.0 mi ENE 10.4 mph 18.4 mph N/A   Clear
10:35 AM 57.2 °F - 8.6 °F 14% 30.43 in 10.0 mi NE 15.0 mph 21.9 mph N/A   Clear
10:55 AM 57.2 °F - 8.6 °F 14% 30.42 in 10.0 mi East 15.0 mph 19.6 mph N/A   Clear
11:15 AM 59.0 °F - 10.4 °F 15% 30.42 in 10.0 mi NNE 15.0 mph 20.7 mph N/A   Clear
11:35 AM 60.8 °F - 8.6 °F 13% 30.42 in 10.0 mi NNE 13.8 mph 24.2 mph N/A   Clear
11:55 AM 59.0 °F - 8.6 °F 14% 30.42 in 10.0 mi NE 18.4 mph 21.9 mph N/A   Clear
12:15 PM 60.8 °F - 5.0 °F 11% 30.41 in 10.0 mi NNE 11.5 mph 21.9 mph N/A   Clear
12:35 PM 60.8 °F - 5.0 °F 11% 30.40 in 10.0 mi NNE 10.4 mph 16.1 mph N/A   Clear
12:55 PM 62.6 °F - 6.8 °F 11% 30.40 in 10.0 mi ENE 10.4 mph 23.0 mph N/A   Clear
1:15 PM 62.6 °F - 5.0 °F 10% 30.39 in 10.0 mi NE 11.5 mph 18.4 mph N/A   Clear
1:35 PM 62.6 °F - 5.0 °F 10% 30.39 in 10.0 mi NE 5.8 mph - N/A   Clear
1:55 PM 62.6 °F - 6.8 °F 11% 30.38 in 10.0 mi NNW 5.8 mph 19.6 mph N/A   Clear
2:15 PM 64.4 °F - 6.8 °F 10% 30.37 in 10.0 mi ENE 5.8 mph - N/A   Clear
2:35 PM 62.6 °F - 6.8 °F 11% 30.36 in 10.0 mi NNE 13.8 mph 20.7 mph N/A   Clear
2:55 PM 64.4 °F - 6.8 °F 10% 30.35 in 10.0 mi NNW 11.5 mph 16.1 mph N/A   Clear
3:15 PM 64.4 °F - 8.6 °F 11% 30.34 in 10.0 mi NNE 15.0 mph - N/A   Clear
3:35 PM 64.4 °F - 6.8 °F 10% 30.34 in 10.0 mi NNE 15.0 mph 18.4 mph N/A   Clear
3:55 PM 64.4 °F - 8.6 °F 11% 30.34 in 10.0 mi NNE 8.1 mph - N/A   Clear
4:15 PM 64.4 °F - 6.8 °F 10% 30.34 in 10.0 mi North 9.2 mph 17.3 mph N/A   Clear
4:35 PM 64.4 °F - 6.8 °F 10% 30.34 in 10.0 mi North 6.9 mph 17.3 mph N/A   Clear
4:55 PM 64.4 °F - 6.8 °F 10% 30.34 in 10.0 mi NNW 13.8 mph - N/A   Clear
5:15 PM 64.4 °F - 5.0 °F 10% 30.34 in 10.0 mi North 12.7 mph - N/A   Clear
5:35 PM 62.6 °F - 6.8 °F 11% 30.34 in 10.0 mi North 11.5 mph - N/A   Clear
5:55 PM 62.6 °F - 6.8 °F 11% 30.34 in 10.0 mi North 10.4 mph 16.1 mph N/A   Clear
6:15 PM 62.6 °F - 6.8 °F 11% 30.34 in 10.0 mi North 15.0 mph 18.4 mph N/A   Clear
6:35 PM 59.0 °F - 8.6 °F 14% 30.34 in 10.0 mi NNW 9.2 mph - N/A   Clear
6:55 PM 59.0 °F - 6.8 °F 13% 30.35 in 10.0 mi North 11.5 mph - N/A   Clear
7:15 PM 57.2 °F - 6.8 °F 13% 30.35 in 10.0 mi NNW 9.2 mph - N/A   Clear
7:35 PM 55.4 °F - 6.8 °F 14% 30.36 in 10.0 mi NNW 9.2 mph - N/A   Clear
7:55 PM 53.6 °F - 6.8 °F 15% 30.37 in 10.0 mi NNW 8.1 mph - N/A   Unknown
8:15 PM 53.6 °F - 6.8 °F 15% 30.37 in 10.0 mi North 5.8 mph - N/A   Unknown
8:35 PM 50.0 °F - 6.8 °F 17% 30.38 in 10.0 mi Calm Calm - N/A   Clear
8:55 PM 50.0 °F - 6.8 °F 17% 30.39 in 10.0 mi Calm Calm - N/A   Clear
9:15 PM 50.0 °F - 6.8 °F 17% 30.39 in 10.0 mi East 3.5 mph - N/A   Clear
9:35 PM 48.2 °F - 6.8 °F 19% 30.39 in 10.0 mi Calm Calm - N/A   Clear
9:55 PM 44.6 °F - 6.8 °F 21% 30.40 in 10.0 mi Calm Calm - N/A   Clear
10:15 PM 44.6 °F 41.4 °F 6.8 °F 21% 30.40 in 10.0 mi East 5.8 mph - N/A   Clear
10:55 PM 46.4 °F - 6.8 °F 20% 30.41 in 10.0 mi Calm Calm - N/A   Clear
11:15 PM 42.8 °F 38.6 °F 5.0 °F 21% 30.40 in 10.0 mi East 6.9 mph - N/A   Clear
11:35 PM 44.6 °F - 6.8 °F 21% 30.40 in 10.0 mi Calm Calm - N/A   Clear
11:55 PM 41.0 °F - 8.6 °F 26% 30.40 in 10.0 mi Calm Calm - N/A   Clear